TELSTAR 14R 1 37602U 11021A 21054.85007918 -.00000280 00000-0 00000-0 0 9994 2 37602 0.0106 305.2571 0002307 49.0735 42.6178 1.00271742 36371 BREEZE-M R/B 1 37603U 11021B 21055.46677393 -.00000153 00000-0 00000+0 0 9991 2 37603 13.6940 148.5862 4837662 13.3999 355.8397 1.92766428 68669 BREEZE-M DEB [TANK] 1 37604U 11021C 21055.07726459 .00000475 00000-0 19311-3 0 9992 2 37604 49.4046 75.1334 5993433 190.5540 146.9746 4.00527322140223 BREEZE-M DEB 1 44596U 11021D 21055.26491088 -.00000157 00000-0 00000+0 0 9997 2 44596 14.0672 146.0260 4854663 17.4035 347.0950 1.93142278822989